Warrenton, OR

8:40 PM PDT on September 25, 2016 (GMT -0700)
Astoria Regional

Weather History for KAST - December, 2012

Change the Weather History Date:

Saturday, December 29, 2012

  Actual Average Record
Temperature  
Mean Temperature 41 °F 43 °F  
Max Temperature 44 °F 48 °F 60 °F (1963)
Min Temperature 37 °F 37 °F 16 °F (1990)
Degree Days  
Heating Degree Days 24 22  
Month to date heating degree days 597 651  
Since 1 July heating degree days 2012 2064  
Cooling Degree Days 0 0  
Month to date cooling degree days 0 0  
Year to date cooling degree days 25 12  
Moisture  
Dew Point 37 °F    
Average Humidity 87    
Maximum Humidity 92    
Minimum Humidity 82    
Precipitation  
Precipitation T in 0.31 in 3.15 in (1912)
Month to date precipitation 14.59 9.28  
Year to date precipitation 91.25 66.65  
Snow  
Snow 0.00 in - - ()
Snow Depth 0.00 in    
Sea Level Pressure  
Sea Level Pressure 30.16 in    
Wind  
Wind Speed 4 mph (East)    
Max Wind Speed 10 mph    
Max Gust Speed 13 mph    
Visibility 10 miles    
Events Rain    
T = Trace of Precipitation, MM = Missing Value Source: NWS Daily Summary

Daily Weather History Graph

Daily Weather History Graph

Search for Another Location

Airport or City:

Trip Planner

Search our weather history database for the weather conditions in past years. The results will help you decide how hot, cold, wet, or windy it might be!

Date:

Astronomy

Dec. 29, 2012 Rise Set
Actual Time 7:57 AM PST 4:38 PM PST
Civil Twilight 7:23 AM PST 5:12 PM PST
Nautical Twilight 6:45 AM PST 5:50 PM PST
Astronomical Twilight 6:08 AM PST 6:27 PM PST
Moon 6:22 PM PST (12/29) 8:29 AM PST (12/29)
Length of Visible Light 9h 49m
Length of Day
8h 40m
Full, 98% of the Moon is Illuminated
Dec 29
Full
Jan 4
Last Quarter
Jan 11
New
Jan 18
First Quarter
Jan 26
Full

Hourly Weather History & Observations

Time (PST) Temp. Windchill Dew Point Humidity Pressure Visibility Wind Dir Wind Speed Gust Speed Precip Events Conditions
12:55 AM 39.9 °F 34.5 °F 36.0 °F 86% 30.14 in 10.0 mi ENE 8.1 mph - N/A   Overcast
1:36 AM 39.2 °F 35.0 °F 37.4 °F 93% 30.14 in 10.0 mi East 5.8 mph - N/A   Overcast
1:47 AM 39.2 °F 37.0 °F 37.4 °F 93% 30.15 in 10.0 mi East 3.5 mph - N/A   Overcast
1:55 AM 39.9 °F 36.7 °F 37.9 °F 93% 30.15 in 10.0 mi East 4.6 mph - N/A   Overcast
2:21 AM 39.2 °F - 37.4 °F 93% 30.16 in 10.0 mi Calm Calm - N/A   Overcast
2:55 AM 39.9 °F - 37.0 °F 89% 30.17 in 10.0 mi Calm Calm - 0.00 in   Overcast
3:31 AM 41.0 °F 37.1 °F 37.4 °F 87% 30.17 in 10.0 mi East 5.8 mph - N/A   Overcast
3:55 AM 41.0 °F 37.1 °F 37.4 °F 87% 30.16 in 10.0 mi East 5.8 mph - N/A   Overcast
4:55 AM 39.9 °F 37.8 °F 37.0 °F 89% 30.16 in 10.0 mi East 3.5 mph - 0.00 in   Overcast
5:52 AM 39.2 °F 35.9 °F 37.4 °F 93% 30.17 in 10.0 mi East 4.6 mph - N/A   Overcast
5:55 AM 39.9 °F 36.7 °F 37.0 °F 89% 30.17 in 10.0 mi East 4.6 mph - N/A   Overcast
6:30 AM 39.2 °F 35.0 °F 35.6 °F 87% 30.17 in 10.0 mi East 5.8 mph - N/A   Overcast
6:55 AM 39.9 °F 36.7 °F 36.0 °F 86% 30.17 in 10.0 mi East 4.6 mph - N/A   Overcast
7:10 AM 39.2 °F 35.9 °F 35.6 °F 87% 30.17 in 10.0 mi East 4.6 mph - N/A   Overcast
7:36 AM 39.2 °F 35.9 °F 35.6 °F 87% 30.17 in 10.0 mi ESE 4.6 mph - N/A   Overcast
7:43 AM 39.2 °F 35.9 °F 35.6 °F 87% 30.17 in 10.0 mi East 4.6 mph - N/A   Overcast
7:55 AM 39.9 °F 36.7 °F 36.0 °F 86% 30.17 in 10.0 mi East 4.6 mph - N/A   Overcast
8:55 AM 39.9 °F 35.8 °F 36.0 °F 86% 30.19 in 8.0 mi East 5.8 mph - 0.00 in Rain Light Rain
9:26 AM 39.2 °F 35.0 °F 35.6 °F 87% 30.19 in 10.0 mi East 5.8 mph - 0.00 in   Overcast
9:55 AM 41.0 °F 38.0 °F 37.0 °F 86% 30.19 in 10.0 mi East 4.6 mph - 0.00 in   Overcast
10:55 AM 42.1 °F 39.2 °F 37.0 °F 82% 30.19 in 10.0 mi East 4.6 mph - N/A   Overcast
11:55 AM 42.1 °F 40.2 °F 37.9 °F 85% 30.17 in 10.0 mi NE 3.5 mph - N/A   Overcast
12:55 PM 43.0 °F 41.3 °F 37.9 °F 82% 30.16 in 10.0 mi ENE 3.5 mph - N/A   Overcast
1:30 PM 42.8 °F 40.1 °F 39.2 °F 87% 30.15 in 10.0 mi East 4.6 mph - N/A   Overcast
1:55 PM 43.0 °F 39.5 °F 39.0 °F 86% 30.14 in 10.0 mi ENE 5.8 mph - N/A   Overcast
2:55 PM 43.0 °F - 39.0 °F 86% 30.14 in 10.0 mi Calm Calm - N/A   Overcast
3:34 PM 44.6 °F 42.2 °F 39.2 °F 81% 30.13 in 10.0 mi ENE 4.6 mph - N/A   Overcast
3:55 PM 43.0 °F 40.3 °F 39.9 °F 89% 30.13 in 10.0 mi NNE 4.6 mph - N/A   Overcast
4:55 PM 42.1 °F 36.6 °F 37.9 °F 85% 30.14 in 10.0 mi ENE 9.2 mph - N/A   Overcast
5:16 PM 42.8 °F 40.1 °F 37.4 °F 81% 30.15 in 10.0 mi East 4.6 mph - N/A   Overcast
5:53 PM 41.0 °F 39.0 °F 37.4 °F 87% 30.14 in 10.0 mi East 3.5 mph - N/A   Overcast
5:55 PM 41.0 °F 38.0 °F 37.9 °F 89% 30.14 in 10.0 mi East 4.6 mph - N/A   Overcast
6:55 PM 39.9 °F 37.8 °F 37.9 °F 93% 30.16 in 10.0 mi ESE 3.5 mph - N/A   Overcast
7:19 PM 39.2 °F 37.0 °F 37.4 °F 93% 30.15 in 10.0 mi ESE 3.5 mph - N/A   Overcast
7:55 PM 39.0 °F 36.8 °F 37.0 °F 93% 30.16 in 10.0 mi East 3.5 mph - N/A   Mostly Cloudy
8:21 PM 37.4 °F - 37.4 °F 100% 30.16 in 9.0 mi Calm Calm - N/A   Mostly Cloudy
8:55 PM 37.0 °F - 36.0 °F 96% 30.16 in 6.0 mi Calm Calm - N/A   Partly Cloudy
9:55 PM 39.0 °F 36.8 °F 37.0 °F 93% 30.18 in 10.0 mi SE 3.5 mph - N/A   Overcast
10:55 PM 37.9 °F 35.5 °F 36.0 °F 93% 30.20 in 10.0 mi East 3.5 mph - N/A   Scattered Clouds
11:55 PM 37.9 °F 35.5 °F 36.0 °F 93% 30.21 in 8.0 mi ESE 3.5 mph - N/A   Overcast